Content
SEND FEEDBACK

Daily
Averages
Monthly
Summary
United States of America

NEW YORK - CENTRAL PARK, NEW YORK


Home > North America > United States > New York
Elevation: 14 feet     Latitude: 40 47N     Longitude: 073 58W

WEATHER
 
SELECT A DAY
Number of Records: 153,021;   Date Range: 11/1/95 - 12/20/14
 
SHARE

PRINT THIS DATA

[ ← Previous Day ]
WEATHER ALMANAC - MARCH 24, 2013
[ Next Day → ]
[ °C ]   °F
Weather ElementAverageHighLow
Temperature39.5 °F46.9 °F (3:51 pm)33.1 °F (6:51 am)
Dewpoint19.7 °F26.1 °F (11:51 pm)17.1 °F (1:51 am)
Humidity45.9 %58 % (11:51 pm)34 % (3:51 pm)
Barometer29.83 in29.94 in (8:51 am)29.71 in (4:51 pm)
Wind Speed5.1 mph10.4 mph (10:51 am)
Weather ElementAverage
Visibility10 mi
Wind DirectionENE (80.9 °)

Weather ElementTotal
Precipitation---
Heating Degree Days25 (Base 65)
Averaged from 23 records on March 24, 2013
WEATHER CONDITIONS BREAKOUT
WIND DIRECTION BREAKOUT
WEATHER BY HOUR - MARCH 24, 2013
[ °C ]   °F
Local TimeTemperatureDewpointHumidityBarometerVisibilityWind DirectionWind SpeedGust SpeedPrecipitationEventsConditions
1:51 AM35.1 °F17.1 °F48 %29.92 in10.0 miVariable3.5 mphClear
2:51 AM35.1 °F17.1 °F48 %29.90 in10.0 miVariable4.6 mphClear
3:51 AM34.0 °F17.1 °F50 %29.91 in10.0 miVariable3.5 mphClear
4:51 AM34.0 °F17.1 °F50 %29.91 in10.0 miWest (280°)5.8 mphClear
5:51 AM34.0 °F17.1 °F50 %29.92 in10.0 miWest (280°)6.9 mphClear
6:51 AM33.1 °F17.1 °F52 %29.92 in10.0 miVariable4.6 mphClear
7:51 AM33.1 °F18.0 °F54 %29.93 in10.0 miWest (280°)6.9 mphClear
8:51 AM35.1 °F19.0 °F52 %29.94 in10.0 miVariable3.5 mphClear
9:51 AM37.0 °F18.0 °F46 %29.93 in10.0 miCalmClear
10:51 AM39.0 °F18.0 °F43 %29.90 in10.0 miWNW (300°)10.4 mphClear
11:51 AM42.1 °F18.0 °F38 %29.86 in10.0 miNNE (20°)8.1 mphClear
12:51 PM45.0 °F19.0 °F36 %29.83 in10.0 miVariable5.8 mphClear
1:51 PM45.0 °F19.0 °F36 %29.82 in10.0 miVariable4.6 mphClear
2:51 PM45.0 °F19.0 °F36 %29.76 in10.0 miVariable5.8 mphClear
3:51 PM46.9 °F19.9 °F34 %29.73 in10.0 miNE (40°)9.2 mphClear
4:51 PM45.0 °F19.0 °F36 %29.71 in10.0 miENE (60°)6.9 mphClear
5:51 PM45.0 °F19.9 °F37 %29.72 in10.0 miENE (60°)6.9 mphClear
6:51 PM44.1 °F21.0 °F40 %29.71 in10.0 miENE (60°)9.2 mphClear
7:51 PM41.0 °F25.0 °F53 %29.75 in10.0 miSSE (160°)8.1 mphClear
8:51 PM39.9 °F24.1 °F53 %29.75 in10.0 miCalmClear
9:51 PM39.9 °F24.1 °F53 %29.76 in10.0 miCalmClear
10:51 PM39.9 °F24.1 °F53 %29.74 in10.0 miNW (320°)3.5 mphClear
11:51 PM39.9 °F26.1 °F58 %29.71 in10.0 miCalmClear
Hourly data recorded from KNYC, located miles away from New York - Central Park, New York







STORIES FROM OUR PARTNERS